Location: Goettingen
(51.5300°N, 9.9433°E)
Time: 20:07:18
(UTC+02:00)

ISS - Pass Details

Date: 15 July 2019
Orbit: 409 x 418 km, 51.6° (Epoch: 20 July)

Event Time Altitude Azimuth Distance (km) Brightness Sun altitude
Rises 03:56:02 0° 281° (WNW) 2,347 -0.2 -9.9°
Reaches altitude 10° 03:58:08 10° 279° (W) 1,482 -1.2 -9.7°
Maximum altitude 04:01:26 68° 196° (SSW) 447 -3.9 -9.4°
Drops below altitude 10° 04:04:43 10° 113° (ESE) 1,475 -0.8 -9.1°
Sets 04:06:49 0° 111° (ESE) 2,334 0.3 -8.9°
